Location: Auckland
(36.8670°S, 174.7670°E)
Time: 23:35:20
(UTC+12:00)

Daily predictions for brighter satellites

Satellite Brightness Start Highest point End
(mag) Time Altitude Azimuth Time Altitude Azimuth Time Altitude Azimuth
Cosmos 2360 Rocket 4.3 17:45:48 10° WNW 17:50:20 25° WSW 17:54:56 10° S
Cosmos 2219 Rocket 2.7 17:44:48 10° NNW 17:50:22 64° WSW 17:55:59 10° SSE
Cosmos 1953 Rocket 3.9 17:47:41 10° NNW 17:52:07 75° W 17:56:41 10° S
Lacrosse 5 3.9 17:50:29 10° S 17:52:19 12° SSE 17:54:10 10° SE
Nadezhda 4 Rocket 4.1 17:46:27 10° N 17:52:35 86° W 17:58:51 10° S
Cosmos 1092 Rocket 4.1 17:47:27 10° NNE 17:53:28 56° E 17:59:38 10° SSE
USA 276 3.0 17:51:23 10° SW 17:54:20 31° SSE 17:57:15 10° E
Cosmos 2058 3.0 17:54:45 10° N 17:58:47 56° E 18:02:54 10° SSE
Meteor 2-8 Rocket 4.5 17:56:05 10° S 18:02:18 67° E 18:08:25 10° NNE
Atlas Centaur 2 3.0 17:57:47 10° WNW 18:02:50 46° N 18:09:15 10° ENE
SMAP 3.8 17:59:00 10° SSE 18:03:14 32° E 18:07:24 10° NNE
Cosmos 2026 Rocket 4.2 17:57:08 10° NNE 18:03:19 53° E 18:09:33 10° SSE
COSMO-SKYMED 1 3.6 17:59:14 10° N 18:03:29 51° W 18:07:47 10° SSW
CSL-04 DEB 4.4 18:00:43 10° NNE 18:04:36 58° ESE 18:08:31 10° S
Cosmos 1486 Rocket 4.3 17:59:33 10° SSW 18:04:52 77° WNW 18:10:09 10° N
CZ-2C R/B 2.9 17:59:56 10° NNE 18:05:26 56° ESE 18:10:57 10° S
H-2A R/B 3.7 18:01:35 10° NNW 18:05:30 38° W 18:09:25 10° SSW
Cosmos 1825 2.2 18:05:02 10° N 18:08:49 87° W 18:12:40 10° S
IRIDIUM 103 4.3 18:03:42 10° S 18:08:58 64° E 18:14:09 10° NNE
USA 234 3.6 18:04:10 10° SE 18:10:42 65° SW 18:17:12 10° WNW
Cosmos 1408 4.1 18:08:50 10° NNW 18:12:21 39° W 18:15:55 10° S
Cosmos 1980 3.8 18:08:51 10° N 18:14:26 62° ENE 18:20:05 10° SSE
Cosmos 405 Rocket 2.6 18:10:50 10° N 18:14:31 67° E 18:18:20 10° SSE
Cosmos 1842 Rocket 3.7 18:11:20 10° S 18:15:45 54° E 18:20:09 10° NNE
NOAA 6 4.0 18:15:12 10° SSE 18:20:22 64° ENE 18:25:27 10° N
Envisat 3.9 18:15:25 10° S 18:20:26 53° WSW 18:25:22 10° NNW
Radarsat Rocket 4.2 18:17:13 10° SSE 18:22:59 44° E 18:28:31 10° N
Cosmos 1356 3.6 18:20:47 10° NNW 18:24:12 75° W 18:27:40 10° S
SL-16 R/B 3.3 18:22:05 10° NNE 18:26:26 23° E 18:28:38 18° ESE
IRIDIUM 106 4.4 18:21:59 10° S 18:27:18 85° W 18:32:33 10° N
Cosmos 1437 Rocket 3.2 18:25:17 10° S 18:28:51 36° ESE 18:32:23 10° NE
CZ-4B R/B 2.8 18:26:26 10° N 18:29:18 37° W 18:32:14 10° SSW
MOS 1-B 4.5 18:24:42 10° SSE 18:30:28 56° ENE 18:36:10 10° N
Cosmos 2221 2.4 18:26:58 10° S 18:31:19 85° E 18:35:36 10° N
CZ-4B DEB 4.1 18:25:58 10° SSE 18:31:30 72° ENE 18:36:57 10° N
Cosmos 1689 Rocket 2.1 18:31:46 10° NNE 18:34:31 47° ESE 18:37:20 10° S
SL-8 R/B 4.3 18:30:30 10° WNW 18:35:15 51° SSW 18:38:38 18° SE
Cosmos 1606 2.9 18:32:13 10° S 18:35:55 44° E 18:39:33 10° NNE
USA 102 4.4 18:29:58 10° NE 18:36:25 40° ESE 18:38:01 30° SE
ATLAS 3B R/B 3.2 18:29:34 10° NW 18:37:04 69° WSW 18:44:29 10° SSE
PSLV R/B 4.3 18:38:31 10° N 18:42:40 67° WNW 18:46:50 10° SSW
Cosmos 2333 Rocket 4.5 18:38:53 10° WNW 18:43:05 21° SW 18:47:20 10° S
Meteor 2-15 Rocket 4.4 18:37:14 10° S 18:43:25 82° E 18:49:30 10° N
SEDSat Delta rocket 4.4 18:42:39 10° WNW 18:48:32 52° N 18:52:48 21° ENE
Cosmos 1076 Rocket 3.6 18:44:30 10° N 18:48:45 76° W 18:53:08 10° S
Cosmos 1461 4.2 18:47:21 10° S 18:50:14 25° SE 18:50:14 25° SE
Cosmos 1553 Rocket 3.9 18:47:32 10° S 18:53:38 63° E 18:59:39 10° NNE
Cosmos 1777 Rocket 3.9 18:49:22 10° SSW 18:54:41 66° ESE 18:59:53 10° NNE
Cosmos 2237 Rocket 2.7 18:51:11 10° NNW 18:56:47 61° WSW 19:02:28 10° SSE
H-2A R/B 3.6 19:00:07 18° NE 19:00:07 18° NE 19:01:41 10° NNE
Cosmos 1809 Rocket 4.4 18:54:52 10° N 19:01:04 78° E 19:07:19 10° S
Cosmos 2151 2.8 18:58:25 10° N 19:02:37 82° E 19:05:43 18° S
CZ-2C R/B 2.7 18:59:03 11° SSE 19:03:47 74° ENE 19:08:32 10° N
CORIOLIS 4.3 18:59:27 10° S 19:04:58 76° WSW 19:10:25 10° NNW
ERS-2 2.0 19:01:21 10° NNE 19:05:01 90° NNW 19:08:45 10° SSW
CZ-2D R/B 3.4 19:08:10 57° NE 19:08:10 57° NE 19:11:37 10° N
Cosmos 1417 Rocket 4.4 19:01:57 10° S 19:08:23 70° E 19:14:40 10° NNE
SJ 16-02 3.0 19:04:49 10° S 19:06:30 21° SSE 19:06:30 21° SSE
Okean O Rocket 1.5 19:06:03 21° SSE 19:09:02 82° E 19:13:31 10° N
Cosmos 1633 3.3 19:08:31 10° NNW 19:12:00 52° W 19:14:15 20° S
Cosmos 1943 Rocket 4.0 19:14:25 10° S 19:15:55 16° SSE 19:15:55 16° SSE
Cosmos 1655 Rocket 3.9 19:13:05 10° N 19:19:21 77° E 19:25:47 10° S
Cosmos 2278 Rocket 2.9 19:18:43 10° SSW 19:24:18 55° WNW 19:29:49 10° N
Meteor 2-3 Rocket 3.6 19:19:33 10° N 19:25:09 88° E 19:29:42 17° S
Cosmos 1939 Rocket 4.2 19:23:03 10° S 19:27:00 41° WSW 19:30:55 10° NW
USA 276 4.4 19:27:46 10° WSW 19:30:09 24° WNW 19:30:09 24° WNW
CZ-4B R/B 3.6 19:25:35 10° S 19:30:52 60° WSW 19:36:05 10° NNW
Meteor 2-16 Rocket 4.3 19:25:26 10° N 19:31:30 72° E 19:33:54 39° SSE
H-2A R/B 3.1 19:33:35 48° WSW 19:33:45 49° WSW 19:37:27 10° NNW
Lacrosse 5 3.1 19:31:41 10° SSW 19:34:45 31° S 19:34:45 31° S
Meteor 2-21 Rocket 4.4 19:31:45 10° N 19:37:59 84° W 19:44:19 10° S
Atlas Centaur 2 3.4 19:46:02 10° WNW 19:51:45 40° N 19:52:48 37° N
SL-16 R/B 3.1 20:04:48 10° NW 20:10:11 44° WSW 20:10:35 43° SW
